Total_Precipitation_Accumulation
0.68 0.70 0.70 0.76 0.75 0.85 0.87 0.73 0.60 0.62 0.62 0.61 0.56 0.57 0.56 0.55 0.55 0.60 0.65 0.57 0.50 0.61 0.81 0.91 0.91 0.87 0.80 0.76 0.73 0.72 0.70 0.69 0.65 0.60 0.52 0.46 0.44 0.45 0.47 0.48 0.48 0.49 0.50
0.86 0.89 0.93 0.95 0.93 1.05 1.08 0.93 0.82 0.90 0.88 0.89 0.77 0.72 0.73 0.76 0.73 0.69 0.71 0.70 0.62 0.58 0.69 0.85 0.94 0.95 0.91 0.86 0.81 0.76 0.74 0.74 0.72 0.66 0.58 0.52 0.50 0.49 0.49 0.52 0.53 0.53 0.49
1.20 1.25 1.31 1.26 1.19 1.19 1.20 1.13 1.05 1.05 1.07 0.94 0.84 0.83 0.85 0.77 0.70 0.75 0.82 0.86 0.82 0.76 0.76 0.78 0.84 0.91 0.98 1.00 0.99 0.92 0.85 0.82 0.75 0.71 0.67 0.62 0.58 0.55 0.53 0.53 0.54 0.54 0.51
1.50 1.63 1.67 1.49 1.40 1.37 1.42 1.42 1.28 1.23 1.25 1.23 1.05 0.91 0.93 0.91 0.80 0.78 0.80 0.83 0.92 0.90 0.85 0.76 0.78 0.82 0.86 0.94 1.01 1.02 0.97 0.90 0.86 0.82 0.79 0.75 0.70 0.63 0.57 0.54 0.53 0.53 0.54
1.66 1.80 1.86 1.78 1.62 1.63 1.68 1.60 1.67 1.57 1.55 1.40 1.15 1.00 0.89 0.82 0.82 0.79 0.83 0.87 0.86 0.88 0.95 0.91 0.87 0.86 0.89 0.95 0.95 0.94 0.96 0.98 0.96 0.91 0.87 0.85 0.78 0.71 0.63 0.59 0.57 0.58 0.60
1.97 2.14 2.11 2.08 1.97 1.97 2.04 1.95 1.91 1.77 1.61 1.47 1.27 1.09 0.90 0.75 0.75 0.79 0.78 0.76 0.73 0.71 0.74 0.76 0.79 0.76 0.79 0.84 0.86 0.93 1.06 1.11 1.08 1.02 0.99 0.97 0.92 0.81 0.69 0.65 0.62 0.62 0.63
2.66 2.78 2.69 2.57 2.38 2.28 2.26 2.14 2.00 1.85 1.71 1.65 1.57 1.34 1.03 0.80 0.72 0.68 0.66 0.63 0.59 0.58 0.55 0.58 0.63 0.63 0.63 0.69 0.74 0.81 0.95 1.04 1.04 1.05 1.06 1.04 1.00 0.93 0.85 0.77 0.72 0.71 0.69
3.34 3.30 3.18 2.90 2.62 2.41 2.23 2.06 1.91 1.77 1.62 1.56 1.55 1.49 1.27 1.02 0.77 0.60 0.60 0.58 0.56 0.56 0.54 0.51 0.52 0.50 0.48 0.51 0.55 0.62 0.70 0.73 0.78 0.84 0.88 0.89 0.91 0.93 0.94 0.91 0.87 0.85 0.82
3.23 3.12 3.01 2.84 2.60 2.39 2.19 2.07 1.94 1.82 1.66 1.59 1.55 1.55 1.41 1.13 0.84 0.67 0.59 0.56 0.54 0.52 0.49 0.48 0.48 0.46 0.44 0.44 0.46 0.54 0.61 0.61 0.61 0.68 0.76 0.80 0.83 0.87 0.90 0.93 0.93 0.94 0.93
2.92 2.75 2.74 2.68 2.52 2.32 2.12 1.96 1.83 1.75 1.72 1.61 1.49 1.33 1.21 1.03 0.96 0.84 0.71 0.62 0.55 0.51 0.47 0.43 0.43 0.45 0.48 0.49 0.53 0.56 0.61 0.60 0.58 0.60 0.64 0.68 0.73 0.76 0.80 0.84 0.90 0.97 1.01
2.63 2.48 2.44 2.35 2.15 1.99 1.85 1.70 1.58 1.53 1.54 1.50 1.41 1.32 1.25 1.10 0.97 0.93 0.84 0.69 0.61 0.54 0.46 0.42 0.41 0.43 0.46 0.48 0.50 0.56 0.62 0.59 0.59 0.60 0.62 0.65 0.70 0.76 0.82 0.88 0.97 1.07 1.15
2.40 2.18 1.96 1.84 1.78 1.64 1.46 1.34 1.25 1.17 1.16 1.18 1.19 1.15 1.07 1.06 1.01 0.98 0.91 0.79 0.72 0.65 0.55 0.51 0.48 0.46 0.46 0.43 0.44 0.54 0.57 0.59 0.58 0.56 0.55 0.57 0.61 0.67 0.74 0.82 0.95 1.08 1.21
1.94 1.74 1.56 1.43 1.37 1.33 1.24 1.13 1.06 0.97 0.92 0.92 0.91 0.95 0.96 0.93 0.88 0.91 0.96 0.93 0.84 0.72 0.60 0.52 0.44 0.40 0.40 0.44 0.51 0.54 0.53 0.54 0.52 0.49 0.50 0.54 0.57 0.61 0.62 0.66 0.72 0.83 0.93
1.48 1.26 1.14 1.07 0.98 0.91 0.88 0.86 0.87 0.85 0.82 0.84 0.84 0.87 0.91 0.88 0.85 0.85 0.89 0.95 0.93 0.80 0.66 0.54 0.43 0.40 0.42 0.46 0.53 0.46 0.49 0.46 0.44 0.47 0.48 0.52 0.56 0.64 0.65 0.61 0.58 0.61 0.65
1.10 0.97 0.88 0.82 0.77 0.73 0.69 0.67 0.67 0.69 0.71 0.72 0.73 0.74 0.77 0.75 0.74 0.75 0.78 0.85 0.91 0.86 0.75 0.59 0.51 0.49 0.53 0.52 0.55 0.53 0.57 0.50 0.46 0.52 0.53 0.58 0.65 0.75 0.76 0.66 0.57 0.51 0.50
0.84 0.77 0.73 0.69 0.64 0.60 0.60 0.62 0.62 0.62 0.62 0.60 0.55 0.50 0.47 0.44 0.45 0.48 0.55 0.63 0.71 0.78 0.77 0.60 0.51 0.53 0.56 0.51 0.56 0.57 0.57 0.54 0.56 0.78 0.89 0.80 0.75 0.90 0.99 0.87 0.72 0.62 0.58
0.63 0.62 0.58 0.56 0.54 0.53 0.52 0.51 0.49 0.45 0.42 0.39 0.37 0.36 0.36 0.34 0.34 0.36 0.40 0.50 0.61 0.72 0.80 0.62 0.51 0.53 0.58 0.55 0.54 0.56 0.55 0.58 0.69 1.09 1.33 1.50 1.24 1.13 1.18 1.08 0.92 0.75 0.65
0.58 0.55 0.50 0.47 0.45 0.41 0.38 0.35 0.32 0.30 0.30 0.30 0.30 0.32 0.32 0.33 0.32 0.33 0.38 0.46 0.56 0.69 0.84 0.77 0.63 0.64 0.64 0.62 0.68 0.69 0.60 0.53 0.60 1.03 1.40 1.73 1.69 1.48 1.49 1.32 1.12 0.86 0.70
0.49 0.46 0.42 0.40 0.37 0.36 0.33 0.29 0.28 0.26 0.25 0.26 0.28 0.29 0.30 0.34 0.37 0.39 0.46 0.52 0.57 0.64 0.80 0.85 0.75 0.75 0.79 0.82 0.92 0.84 0.71 0.67 0.54 0.80 1.25 1.59 1.79 1.85 1.95 1.80 1.48 1.10 0.80
0.43 0.45 0.43 0.36 0.30 0.26 0.25 0.24 0.21 0.21 0.22 0.24 0.26 0.30 0.32 0.38 0.44 0.50 0.52 0.56 0.62 0.69 0.75 0.84 0.83 0.86 0.90 0.95 1.00 0.98 0.82 0.72 0.64 0.67 1.10 1.58 1.92 1.98 2.18 2.31 2.01 1.50 1.06
0.41 0.41 0.39 0.36 0.30 0.24 0.20 0.16 0.14 0.16 0.21 0.25 0.28 0.29 0.32 0.40 0.47 0.47 0.44 0.48 0.61 0.75 0.79 0.88 0.90 0.88 0.86 0.95 0.97 0.84 0.74 0.65 0.59 0.62 0.81 1.24 1.92 2.26 2.33 2.39 2.29 1.79 1.30
0.43 0.38 0.36 0.32 0.28 0.20 0.18 0.16 0.14 0.17 0.22 0.28 0.31 0.30 0.27 0.28 0.27 0.29 0.36 0.43 0.54 0.73 0.97 1.10 1.02 0.93 0.80 0.81 0.83 0.77 0.75 0.70 0.64 0.50 0.54 0.85 1.45 2.17 2.45 2.47 2.36 1.79 1.29
0.38 0.34 0.30 0.27 0.26 0.20 0.15 0.13 0.13 0.17 0.25 0.33 0.35 0.33 0.25 0.19 0.23 0.27 0.31 0.36 0.47 0.63 0.87 1.16 1.21 0.97 0.88 0.83 0.85 0.85 0.86 0.87 0.80 0.57 0.58 0.82 1.23 1.91 2.17 2.23 2.11 1.55 1.14
0.33 0.33 0.30 0.26 0.25 0.17 0.12 0.11 0.12 0.16 0.25 0.29 0.31 0.31 0.32 0.30 0.26 0.27 0.30 0.37 0.50 0.66 0.76 0.84 1.11 0.97 0.78 0.76 0.79 0.80 0.85 0.86 0.78 0.63 0.61 0.85 1.19 1.66 1.74 1.84 1.80 1.40 1.08
0.32 0.28 0.23 0.23 0.24 0.20 0.11 0.09 0.10 0.16 0.21 0.23 0.25 0.24 0.22 0.26 0.25 0.35 0.46 0.63 0.76 0.91 0.89 1.00 1.15 1.12 1.00 0.91 0.78 0.75 0.86 0.86 0.82 0.71 0.66 0.81 1.06 1.23 1.37 1.51 1.43 1.30 1.09
0.27 0.22 0.19 0.21 0.21 0.18 0.09 0.06 0.07 0.13 0.20 0.22 0.25 0.28 0.23 0.21 0.28 0.44 0.64 0.85 0.97 1.08 0.99 1.07 1.29 1.34 1.19 1.15 1.10 0.97 0.95 0.88 0.83 0.82 0.69 0.72 0.90 0.93 1.18 1.27 1.20 1.13 1.09